Location: Sangrey
(48.2845°N, 109.8206°W)
Time: 06:56:07
(UTC+00:00)

BlueWalker 3 - Pass Details

Date: 29 November 2022
Orbit: 499 x 517 km, 53.2° (Epoch: 27 January)

Event Time Altitude Azimuth Distance (km) Brightness Sun altitude
Rises 02:28:25 0° 281° (W) 2,630 6.8 -29.2°
Reaches altitude 10° 02:30:44 10° 289° (WNW) 1,739 5.5 -29.5°
Enters shadow 02:32:22 22° 303° (WNW) 1,169 4.3 -29.8°
